Time,TemperatureF,DewpointF,PressureIn,WindDirection,WindDirectionDegrees,WindSpeedMPH,WindSpeedGustMPH,Humidity,HourlyPrecipIn,Conditions,Clouds,dailyrainin,SoftwareType,DateUTC
2013-10-11 00:00:00,50.0,46.0,-100.00,NNE,32,1.0,-999.0,84,0.00,,,-99.99,,2013-10-11 07:00:00,
2013-10-11 00:42:00,50.0,46.0,-100.00,NNE,32,1.0,-999.0,84,0.00,,,-99.99,,2013-10-11 07:42:00,
2013-10-11 00:52:00,50.0,46.0,-100.00,NNE,32,1.0,-999.0,84,0.00,,,-99.99,,2013-10-11 07:52:00,
2013-10-11 01:00:00,51.0,46.0,-100.00,NE,55,2.0,-999.0,84,0.00,,,-99.99,,2013-10-11 08:00:00,
2013-10-11 01:42:00,51.0,46.0,-100.00,NE,55,2.0,-999.0,84,0.00,,,-99.99,,2013-10-11 08:42:00,
2013-10-11 01:52:00,51.0,46.0,-100.00,NE,55,2.0,-999.0,84,0.00,,,-99.99,,2013-10-11 08:52:00,
2013-10-11 02:00:00,50.0,46.0,-100.00,NE,45,2.0,-999.0,85,0.00,,,-99.99,,2013-10-11 09:00:00,
2013-10-11 02:43:00,50.0,46.0,-100.00,NE,45,2.0,-999.0,85,0.00,,,-99.99,,2013-10-11 09:43:00,
2013-10-11 02:54:00,50.0,46.0,-100.00,NE,45,2.0,-999.0,85,0.00,,,-99.99,,2013-10-11 09:54:00,
2013-10-11 05:00:00,46.0,43.0,-100.00,NNE,20,1.0,-999.0,88,0.00,,,-99.99,,2013-10-11 12:00:00,
2013-10-11 05:42:00,46.0,43.0,-100.00,NNE,20,1.0,-999.0,88,0.00,,,-99.99,,2013-10-11 12:42:00,
2013-10-11 05:52:00,46.0,43.0,-100.00,NNE,20,1.0,-999.0,88,0.00,,,-99.99,,2013-10-11 12:52:00,
2013-10-11 06:00:00,46.0,43.0,-100.00,ENE,59,1.0,-999.0,89,0.00,,,-99.99,,2013-10-11 13:00:00,
2013-10-11 06:43:00,46.0,43.0,-100.00,ENE,59,1.0,-999.0,89,0.00,,,-99.99,,2013-10-11 13:43:00,
2013-10-11 06:53:00,46.0,43.0,-100.00,ENE,59,1.0,-999.0,89,0.00,,,-99.99,,2013-10-11 13:53:00,
2013-10-11 07:00:00,46.0,43.0,-100.00,ENE,69,1.0,-999.0,89,0.00,,,-99.99,,2013-10-11 14:00:00,
2013-10-11 07:42:00,46.0,43.0,-100.00,ENE,69,1.0,-999.0,89,0.00,,,-99.99,,2013-10-11 14:42:00,
2013-10-11 07:52:00,46.0,43.0,-100.00,ENE,69,1.0,-999.0,89,0.00,,,-99.99,,2013-10-11 14:52:00,
2013-10-11 08:00:00,48.0,45.0,-100.00,NE,44,1.0,-999.0,89,0.00,,,-99.99,,2013-10-11 15:00:00,
2013-10-11 08:44:00,48.0,45.0,-100.00,NE,44,1.0,-999.0,89,0.00,,,-99.99,,2013-10-11 15:44:00,
2013-10-11 08:54:00,48.0,45.0,-100.00,NE,44,1.0,-999.0,89,0.00,,,-99.99,,2013-10-11 15:54:00,
2013-10-11 09:00:00,55.0,49.0,-100.00,East,101,1.0,-999.0,79,0.00,,,-99.99,,2013-10-11 16:00:00,
2013-10-11 09:43:00,55.0,49.0,-100.00,East,101,1.0,-999.0,79,0.00,,,-99.99,,2013-10-11 16:43:00,
2013-10-11 09:53:00,55.0,49.0,-100.00,East,101,1.0,-999.0,79,0.00,,,-99.99,,2013-10-11 16:53:00,
2013-10-11 10:00:00,66.0,49.0,-100.00,SW,220,1.0,-999.0,53,0.00,,,-99.99,,2013-10-11 17:00:00,
2013-10-11 10:43:00,66.0,49.0,-100.00,SW,220,1.0,-999.0,53,0.00,,,-99.99,,2013-10-11 17:43:00,
2013-10-11 10:53:00,66.0,49.0,-100.00,SW,220,1.0,-999.0,53,0.00,,,-99.99,,2013-10-11 17:53:00,
2013-10-11 11:00:00,66.0,49.0,-100.00,SSW,211,4.0,-999.0,52,0.00,,,-99.99,,2013-10-11 18:00:00,
2013-10-11 11:43:00,66.0,49.0,-100.00,SSW,211,4.0,-999.0,52,0.00,,,-99.99,,2013-10-11 18:43:00,
2013-10-11 11:52:00,66.0,49.0,-100.00,SSW,211,4.0,-999.0,52,0.00,,,-99.99,,2013-10-11 18:52:00,
2013-10-11 12:00:00,70.0,47.0,-100.00,WSW,253,2.0,-999.0,43,0.00,,,-99.99,,2013-10-11 19:00:00,
2013-10-11 12:43:00,70.0,47.0,-100.00,WSW,253,2.0,-999.0,43,0.00,,,-99.99,,2013-10-11 19:43:00,
2013-10-11 12:52:00,70.0,47.0,-100.00,WSW,253,2.0,-999.0,43,0.00,,,-99.99,,2013-10-11 19:52:00,
2013-10-11 13:00:00,70.0,51.0,-100.00,SW,236,4.0,-999.0,49,0.00,,,-99.99,,2013-10-11 20:00:00,
2013-10-11 13:43:00,70.0,51.0,-100.00,SW,236,4.0,-999.0,49,0.00,,,-99.99,,2013-10-11 20:43:00,
2013-10-11 13:53:00,70.0,51.0,-100.00,SW,236,4.0,-999.0,49,0.00,,,-99.99,,2013-10-11 20:53:00,
2013-10-11 14:00:00,70.0,51.0,-100.00,WNW,298,3.0,-999.0,50,0.00,,,-99.99,,2013-10-11 21:00:00,
2013-10-11 14:43:00,70.0,51.0,-100.00,WNW,298,3.0,-999.0,50,0.00,,,-99.99,,2013-10-11 21:43:00,
2013-10-11 14:55:00,70.0,51.0,-100.00,WNW,298,3.0,-999.0,50,0.00,,,-99.99,,2013-10-11 21:55:00,
2013-10-11 15:00:00,70.0,52.0,-100.00,SSW,206,3.0,-999.0,51,0.00,,,-99.99,,2013-10-11 22:00:00,
2013-10-11 15:43:00,70.0,52.0,-100.00,SSW,206,3.0,-999.0,51,0.00,,,-99.99,,2013-10-11 22:43:00,
2013-10-11 15:54:00,70.0,52.0,-100.00,SSW,206,3.0,-999.0,51,0.00,,,-99.99,,2013-10-11 22:54:00,
2013-10-11 16:00:00,70.0,52.0,-100.00,WSW,238,7.0,-999.0,52,0.00,,,-99.99,,2013-10-11 23:00:00,
2013-10-11 16:42:00,70.0,52.0,-100.00,WSW,238,7.0,-999.0,52,0.00,,,-99.99,,2013-10-11 23:42:00,
2013-10-11 16:53:00,70.0,52.0,-100.00,WSW,238,7.0,-999.0,52,0.00,,,-99.99,,2013-10-11 23:53:00,
2013-10-11 17:00:00,68.0,53.0,-100.00,WSW,244,3.0,-999.0,59,0.00,,,-99.99,,2013-10-12 00:00:00,
2013-10-11 17:42:00,68.0,53.0,-100.00,WSW,244,3.0,-999.0,59,0.00,,,-99.99,,2013-10-12 00:42:00,
2013-10-11 17:53:00,68.0,53.0,-100.00,WSW,244,3.0,-999.0,59,0.00,,,-99.99,,2013-10-12 00:53:00,
2013-10-11 18:00:00,66.0,53.0,-100.00,SW,218,2.0,-999.0,63,0.00,,,-99.99,,2013-10-12 01:00:00,
2013-10-11 18:42:00,66.0,53.0,-100.00,SW,218,2.0,-999.0,63,0.00,,,-99.99,,2013-10-12 01:42:00,
2013-10-11 18:52:00,66.0,53.0,-100.00,SW,218,2.0,-999.0,63,0.00,,,-99.99,,2013-10-12 01:52:00,
2013-10-11 19:00:00,61.0,53.0,-100.00,WSW,241,1.0,-999.0,74,0.00,,,-99.99,,2013-10-12 02:00:00,
2013-10-11 19:42:00,61.0,53.0,-100.00,WSW,241,1.0,-999.0,74,0.00,,,-99.99,,2013-10-12 02:42:00,
2013-10-11 19:52:00,61.0,53.0,-100.00,WSW,241,1.0,-999.0,74,0.00,,,-99.99,,2013-10-12 02:52:00,
2013-10-11 20:00:00,58.0,52.0,-100.00,SE,142,0.0,-999.0,82,0.00,,,-99.99,,2013-10-12 03:00:00,
2013-10-11 20:44:00,58.0,52.0,-100.00,SE,142,0.0,-999.0,82,0.00,,,-99.99,,2013-10-12 03:44:00,
2013-10-11 20:54:00,58.0,52.0,-100.00,SE,142,0.0,-999.0,82,0.00,,,-99.99,,2013-10-12 03:54:00,
2013-10-11 21:00:00,55.0,50.0,-100.00,East,92,3.0,-999.0,85,0.00,,,-99.99,,2013-10-12 04:00:00,
2013-10-11 21:44:00,55.0,50.0,-100.00,East,92,3.0,-999.0,85,0.00,,,-99.99,,2013-10-12 04:44:00,
2013-10-11 21:54:00,55.0,50.0,-100.00,East,92,3.0,-999.0,85,0.00,,,-99.99,,2013-10-12 04:54:00,
2013-10-11 22:00:00,53.0,49.0,-100.00,ENE,75,3.0,-999.0,85,0.00,,,-99.99,,2013-10-12 05:00:00,
2013-10-11 22:43:00,53.0,49.0,-100.00,ENE,75,3.0,-999.0,85,0.00,,,-99.99,,2013-10-12 05:43:00,
2013-10-11 22:52:00,53.0,49.0,-100.00,ENE,75,3.0,-999.0,85,0.00,,,-99.99,,2013-10-12 05:52:00,
2013-10-11 23:00:00,52.0,48.0,-100.00,NE,39,2.0,-999.0,85,0.00,,,-99.99,,2013-10-12 06:00:00,
2013-10-11 23:42:00,52.0,48.0,-100.00,NE,39,2.0,-999.0,85,0.00,,,-99.99,,2013-10-12 06:42:00,
2013-10-11 23:52:00,52.0,48.0,-100.00,NE,39,2.0,-999.0,85,0.00,,,-99.99,,2013-10-12 06:52:00,